AV279 Weather Reports


Display with metric or nautical units.
time (UTC)temp
F
wind
direction
speed
MPH
gust
MPH
rain 1hr
in
rain 24hr
in
rain mn
in
humidity
%
barometer
mb
20260506095529 59 23 7.0 10.0 0.00 0.00 0.00 67 1009.8
20260506094519 58 0 8.0 14.0 0.00 0.00 0.00 68 1009.8
20260506093518 58 23 6.0 11.0 0.00 0.00 0.00 69 1009.8
20260506092549 57 0 7.0 15.0 0.00 0.00 0.00 67 1009.8
20260506091521 58 0 5.0 10.0 0.00 0.00 0.00 67 1009.9
20260506090520 57 23 7.0 14.0 0.00 0.00 0.00 69 1009.9
20260506085601 56 23 7.0 12.0 0.00 0.00 0.00 69 1009.9
20260506084518 57 23 7.0 12.0 0.00 0.00 0.00 68 1009.8
20260506083518 56 45 5.0 10.0 0.00 0.00 0.00 68 1009.7
20260506082531 56 0 5.0 8.0 0.00 0.00 0.00 70 1009.7
20260506081531 56 90 3.0 11.0 0.00 0.00 0.00 70 1009.5
20260506080518 56 23 10.0 16.0 0.00 0.00 0.00 69 1009.5
20260506072520 54 23 4.0 7.0 0.00 0.00 0.00 75 1009.3
20260506071531 53 23 9.0 15.0 0.00 0.00 0.00 76 1009.5
20260506070600 53 23 6.0 12.0 0.00 0.00 0.00 76 1009.4
20260506061520 52 338 2.0 6.0 0.00 0.00 0.00 79 1009.2
20260506060503 52 45 4.0 6.0 0.00 0.00 0.00 79 1009.3
20260506050718 52 0 6.0 8.0 0.00 0.00 0.00 79 1009.2
20260506044330 51 23 3.0 5.0 0.00 0.00 0.00 79 1009.3
20260506043339 51 45 3.0 8.0 0.00 0.00 0.00 79 1009.2
20260506042319 51 23 3.0 7.0 0.00 0.00 0.00 80 1009.2
20260506041340 51 23 6.0 10.0 0.00 0.00 0.00 79 1009.3
20260506040352 51 0 6.0 10.0 0.00 0.00 0.00 79 1009.3
20260506035340 51 315 5.0 11.0 0.00 0.00 0.00 80 1009.3
20260506034330 51 0 6.0 9.0 0.00 0.00 0.00 80 1009.4
20260506033320 51 0 5.0 11.0 0.00 0.00 0.00 80 1009.2
20260506032350 51 0 4.0 9.0 0.00 0.00 0.00 80 1009.3
20260506031320 51 23 7.0 15.0 0.00 0.00 0.00 79 1009.3
20260506030352 51 23 5.0 8.0 0.00 0.00 0.00 80 1009.3
20260506025330 51 23 4.0 6.0 0.00 0.00 0.00 80 1009.2
20260506024341 51 23 3.0 9.0 0.00 0.00 0.00 80 1009.1
20260506023330 51 45 4.0 10.0 0.00 0.00 0.00 79 1009.2
20260506022319 51 23 8.0 12.0 0.00 0.00 0.00 79 1009.3
20260506021319 51 45 5.0 9.0 0.00 0.00 0.00 80 1009.3
20260506020330 51 338 6.0 9.0 0.00 0.00 0.00 80 1009.3
20260506015330 51 0 8.0 14.0 0.00 0.00 0.00 80 1009.3
20260506014320 50 338 5.0 10.0 0.00 0.00 0.00 81 1009.4
20260506013319 50 23 6.0 10.0 0.00 0.00 0.00 81 1009.5
20260506012320 50 23 6.0 9.0 0.00 0.00 0.00 81 1009.4
20260506011350 50 23 6.0 8.0 0.00 0.00 0.00 81 1009.4
20260506010319 50 0 5.0 9.0 0.00 0.00 0.00 80 1009.5
20260506005339 50 23 4.0 8.0 0.00 0.00 0.00 80 1009.6
20260506004319 50 23 8.0 13.0 0.00 0.00 0.00 81 1009.7
20260506003330 50 23 3.0 5.0 0.00 0.00 0.00 81 1009.8
20260506002319 50 68 3.0 8.0 0.00 0.00 0.00 80 1009.8
20260506001319 51 23 5.0 10.0 0.00 0.00 0.00 80 1009.8
20260506000330 51 338 4.0 8.0 0.00 0.00 0.00 79 1009.8
20260505235320 51 23 7.0 12.0 0.00 0.00 0.00 79 1009.8
20260505234320 51 0 7.0 11.0 0.00 0.00 0.00 78 1009.7
20260505233322 52 0 4.0 8.0 0.00 0.00 0.00 77 1009.8
20260505232350 52 0 4.0 10.0 0.00 0.00 0.00 78 1009.9
20260505231330 52 23 7.0 12.0 0.00 0.00 0.00 78 1009.8
20260505230330 52 23 7.0 11.0 0.00 0.00 0.00 78 1009.9
20260505225320 52 0 5.0 10.0 0.00 0.00 0.00 78 1009.9
20260505224352 52 45 4.0 9.0 0.00 0.00 0.00 78 1009.9
20260505223319 52 0 5.0 11.0 0.00 0.00 0.00 78 1010.0
20260505222320 52 45 5.0 9.0 0.00 0.00 0.00 78 1009.9
20260505221350 52 23 4.0 11.0 0.00 0.00 0.00 78 1010.0
20260505220323 52 23 9.0 13.0 0.00 0.00 0.00 78 1010.1
20260505215533 52 23 4.0 8.0 0.00 0.00 0.00 78 1010.1
20260505214330 52 0 7.0 12.0 0.00 0.00 0.00 78 1010.2
20260505213319 52 23 4.0 6.0 0.00 0.00 0.00 77 1010.2
20260505212319 52 23 4.0 5.0 0.00 0.00 0.00 77 1010.2
20260505211401 52 45 5.0 10.0 0.00 0.00 0.00 77 1010.2
20260505210319 52 68 4.0 8.0 0.00 0.00 0.00 78 1010.1
20260505205330 52 23 8.0 12.0 0.00 0.00 0.00 78 1010.0
20260505204330 53 338 5.0 13.0 0.00 0.00 0.00 78 1010.1
20260505203330 52 0 8.0 14.0 0.00 0.00 0.00 78 1010.1
20260505202319 52 68 3.0 5.0 0.00 0.00 0.00 79 1010.1
20260505201330 52 45 4.0 9.0 0.00 0.00 0.00 78 1010.1
20260505200319 52 23 7.0 10.0 0.00 0.00 0.00 79 1010.0
20260505195320 52 23 10.0 14.0 0.00 0.00 0.00 78 1009.8
20260505194319 53 23 6.0 11.0 0.00 0.00 0.00 78 1009.7
20260505193319 53 315 3.0 6.0 0.00 0.00 0.00 77 1009.7
20260505192319 53 45 6.0 11.0 0.00 0.00 0.00 77 1009.6
20260505191330 53 0 6.0 11.0 0.00 0.00 0.00 76 1009.6
20260505190524 53 23 5.0 9.0 0.00 0.00 0.00 76 1009.5
20260505190019 53 23 9.0 16.0 0.00 0.00 0.00 76 1009.6
20260505185030 53 23 10.0 14.0 0.00 0.00 0.00 76 1009.5
20260505184019 54 0 6.0 11.0 0.00 0.00 0.00 76 1009.4
20260505183030 54 0 5.0 9.0 0.00 0.00 0.00 76 1009.5
20260505182019 54 0 6.0 11.0 0.00 0.00 0.00 75 1009.6
20260505181019 54 45 9.0 17.0 0.00 0.00 0.00 76 1009.5
20260505180019 54 45 10.0 15.0 0.00 0.00 0.00 76 1009.5
20260505175051 54 23 3.0 10.0 0.00 0.00 0.00 76 1009.5
20260505174019 54 23 6.0 12.0 0.00 0.00 0.00 76 1009.6
20260505173019 55 0 7.0 11.0 0.00 0.00 0.00 76 1009.4
20260505172019 55 23 12.0 19.0 0.00 0.00 0.00 77 1009.3
20260505171051 55 23 4.0 6.0 0.00 0.00 0.00 77 1009.2
20260505170030 55 23 8.0 12.0 0.00 0.00 0.00 77 1009.3
20260505165029 55 23 7.0 13.0 0.00 0.00 0.00 77 1009.3
20260505164019 55 45 6.0 11.0 0.00 0.00 0.00 77 1009.4
20260505163019 55 23 8.0 14.0 0.00 0.00 0.00 77 1009.3
20260505162019 55 45 12.0 17.0 0.00 0.00 0.00 75 1009.2
20260505161030 56 23 6.0 15.0 0.00 0.00 0.00 74 1009.3
20260505153049 57 45 8.0 12.0 0.00 0.00 0.00 74 1009.5
20260505152029 57 315 2.0 3.0 0.00 0.00 0.00 74 1009.4
20260505151019 57 23 6.0 11.0 0.00 0.00 0.00 73 1009.5
20260505130219 60 0 7.0 11.0 0.00 0.00 0.00 69 1010.2
20260505124230 60 23 7.0 15.0 0.00 0.00 0.00 70 1009.9
20260505123218 59 23 11.0 19.0 0.00 0.00 0.00 70 1010.1
20260505122219 58 23 6.0 17.0 0.00 0.00 0.00 72 1010.1
20260505121218 57 23 6.0 9.0 0.00 0.00 0.00 72 1010.2
20260505120251 57 338 9.0 17.0 0.00 0.00 0.00 72 1010.1
20260505115219 58 45 6.0 10.0 0.00 0.00 0.00 71 1010.3
20260505114218 58 23 7.0 12.0 0.00 0.00 0.00 71 1010.2
20260505113219 59 0 11.0 16.0 0.00 0.00 0.00 70 1010.2
20260505112238 58 45 6.0 15.0 0.00 0.00 0.00 69 1010.2
20260505111219 59 68 5.0 9.0 0.00 0.00 0.00 67 1010.2
20260505110229 59 23 11.0 16.0 0.00 0.00 0.00 69 1010.4
20260505101249 59 23 11.0 18.0 0.00 0.00 0.00 70 1010.5
20260505100258 59 23 7.0 16.0 0.00 0.00 0.00 69 1010.5